EUTELSAT 115 WEST B

Last updated on Sun Apr 12 2026 00:02:53 GMT+0000 (Coordinated Universal Time)

1 40425U 15010B 26101.49789728 -.00000023 00000+0 00000+0 0 9990 2 40425 0.0115 71.0864 0000337 219.1187 333.8631 1.00271344 40724
UTC large
Height (km)
Speed (km/s)
/
Latitude / Longitude
Inclination (degrees)
Orbital Period (minutes)
Azimuth
Elevation
Range (km)
Doppler Factor

Next 0 passes for location: London (51.5072 / 0.1276)

Sorry there are no passes over London.
EUTELSAT 115 WEST B